Theta_e
310 310 311 312 312 311 311 310 309 308 308 305 302 305 304 304 303 315 315 313 321 312 306 308 305 302 305 308 307 307 306 305 307 306 309 307 309 308 307 307 308 310 309 310 308 310 307 308 304 306 307 307 309 311 312 312 311 310 305 308 308 327 303 304 304 309 308 310 311 312 313 311 308 307 308 306 303 303 302 302 304 299 302 297 299 298 299
310 310 310 311 311 310 311 309 309 309 309 306 305 302 302 303 303 307 314 316 315 310 302 301 302 303 306 305 305 308 306 306 305 305 307 306 307 306 308 310 312 309 313 311 308 313 304 310 309 306 307 306 312 312 311 312 309 308 305 304 309 303 305 303 300 300 299 304 306 306 310 309 304 304 305 307 308 308 306 308 312 301 301 301 296 293 299
310 310 311 311 310 310 309 309 309 310 310 309 304 299 303 302 307 308 312 317 310 305 309 306 304 304 303 304 303 304 305 307 307 307 306 309 308 307 306 310 312 311 313 310 310 311 308 305 311 310 310 308 312 312 311 312 309 311 315 330 312 305 308 302 295 291 291 292 292 293 298 302 304 308 306 307 306 305 302 298 304 294 303 305 299 302 305
310 310 311 310 310 310 309 309 310 310 309 308 305 303 302 303 298 306 311 312 309 308 313 311 307 305 304 302 303 305 303 307 309 309 307 309 309 308 309 311 312 310 310 308 308 308 311 308 307 310 308 308 310 312 312 312 311 323 335 330 313 307 311 307 301 298 295 298 304 309 310 305 301 304 306 306 308 306 305 303 300 294 297 301 299 306 307
310 310 310 310 310 309 309 309 310 310 309 309 305 303 303 306 301 304 298 305 308 307 310 308 308 304 307 299 305 304 304 305 306 310 305 309 308 308 309 310 308 308 308 306 306 308 308 310 310 309 310 313 314 319 313 312 317 337 332 334 312 312 303 309 310 307 305 309 311 308 309 305 305 305 305 306 306 306 305 301 299 304 301 292 303 308 307
310 310 310 310 309 309 309 309 310 309 308 308 307 303 308 300 307 304 304 296 295 301 303 307 306 308 307 303 306 303 304 306 303 308 309 309 310 306 312 310 310 309 307 307 304 306 306 309 307 312 314 314 316 314 317 311 320 330 320 328 314 311 304 308 309 309 309 309 307 307 308 308 308 307 307 306 306 305 303 307 308 310 301 296 306 309 309
309 309 309 310 309 309 309 310 309 309 308 307 307 304 311 306 303 302 304 296 300 300 301 304 306 308 309 307 305 302 303 304 307 307 309 308 307 310 304 307 309 309 310 308 306 311 304 305 315 318 311 313 312 310 313 315 320 319 312 313 312 309 304 312 306 305 306 306 306 307 306 308 306 306 307 306 306 305 305 305 309 313 310 311 312 311 312
309 309 309 309 309 309 310 309 309 309 307 309 307 307 303 301 300 297 301 300 299 302 305 306 306 305 311 306 307 306 303 303 307 310 308 305 307 311 306 307 308 309 309 309 306 308 311 313 316 322 314 311 314 311 317 310 313 312 309 310 315 306 307 310 308 305 309 306 307 307 306 305 303 305 306 307 306 306 306 306 307 309 308 316 314 312 311
309 309 309 309 309 309 309 310 309 309 308 305 303 304 306 306 309 305 298 296 300 304 303 303 304 302 306 306 307 307 306 304 307 309 313 311 309 310 307 309 308 309 308 308 309 314 313 314 314 316 314 309 318 311 311 313 309 312 310 309 318 308 306 308 306 302 304 306 305 306 306 305 304 304 305 306 307 305 306 305 310 306 305 308 313 310 310
309 309 309 309 309 309 309 309 310 309 308 304 302 300 306 307 310 309 303 296 303 301 303 305 304 300 307 308 309 309 308 308 312 312 314 313 313 312 311 311 308 309 308 308 315 315 315 316 316 316 315 315 314 314 314 314 311 309 309 313 306 306 306 303 302 298 300 306 306 304 304 303 301 302 305 306 306 310 308 309 310 310 313 309 303 305 312
309 309 309 309 309 309 310 310 311 309 308 303 301 300 303 302 302 304 302 296 299 302 302 303 305 307 306 305 304 310 311 312 313 309 313 313 313 316 313 313 308 310 313 313 317 318 317 317 318 317 316 315 315 314 314 315 315 315 316 311 314 308 307 305 306 298 301 305 304 305 304 295 295 312 314 313 309 309 307 307 310 315 318 313 313 314 316
309 309 309 309 309 309 310 311 311 309 308 307 306 303 305 307 305 304 298 293 295 300 299 298 302 304 301 303 304 308 313 313 311 312 310 312 315 315 316 314 314 313 313 318 317 318 319 320 319 318 317 316 316 316 316 313 314 316 314 315 315 313 309 308 309 300 299 305 307 300 293 295 311 318 314 313 311 310 309 311 313 316 316 317 315 316 318
309 309 309 309 309 309 310 311 312 310 309 309 306 302 306 308 304 302 300 296 293 297 296 298 302 303 302 303 303 305 310 309 312 314 313 314 315 315 317 314 314 315 318 315 315 316 313 314 311 315 312 313 313 314 313 312 312 314 314 315 315 311 307 306 305 304 304 300 299 290 293 309 320 315 313 316 313 313 312 310 315 315 317 317 313 314 317
309 309 310 309 309 309 310 311 311 311 309 309 306 305 307 307 304 303 301 296 294 299 299 298 302 301 300 300 302 304 306 306 309 311 312 314 314 315 316 317 316 317 317 315 314 316 311 312 307 306 308 310 310 307 310 312 313 312 313 315 314 314 314 307 303 308 298 300 298 298 308 307 314 312 313 311 310 312 309 303 308 319 318 322 316 316 314
309 310 310 310 309 309 310 310 311 311 311 308 308 306 307 307 307 305 306 301 294 297 300 297 300 301 300 301 303 302 302 303 304 304 309 311 311 314 314 320 321 317 316 313 311 317 312 310 303 304 305 303 299 304 310 307 313 313 313 314 315 319 309 315 301 300 307 298 296 298 297 294 301 314 318 315 316 315 318 309 307 320 315 319 318 314 316
309 310 310 310 310 309 310 311 311 311 310 308 308 306 306 309 310 309 305 300 297 292 301 302 303 302 299 301 302 301 299 300 302 303 304 308 309 312 316 314 316 316 316 313 318 314 314 306 301 301 298 302 307 303 305 308 307 312 312 313 313 316 316 309 305 306 305 303 296 295 295 300 310 317 318 319 317 316 320 309 300 315 319 319 320 317 319
309 310 310 310 309 309 310 310 310 310 310 308 306 305 305 310 308 306 304 302 300 295 303 304 305 302 300 299 301 300 302 300 302 300 300 301 305 308 308 312 315 316 315 313 313 311 306 306 307 305 307 308 302 302 310 307 305 305 310 311 310 309 309 306 303 304 303 303 299 297 303 303 314 316 316 316 317 319 311 297 298 314 320 321 319 320 316
310 310 310 310 309 309 310 310 310 311 310 310 307 305 304 309 311 309 306 302 297 297 302 306 302 298 298 299 298 301 304 303 304 306 308 306 307 304 305 308 309 314 316 309 312 305 305 305 301 301 299 310 308 308 297 306 304 305 305 310 307 307 309 308 303 301 301 302 300 303 305 318 318 317 316 315 318 314 301 292 305 317 321 320 317 317 319
310 310 310 310 309 309 309 310 310 311 311 308 308 306 306 309 309 309 306 303 300 295 303 305 305 301 305 305 301 301 302 301 302 299 298 301 305 305 305 307 312 306 312 306 308 307 304 306 311 306 301 305 307 302 309 303 304 309 307 303 305 306 307 308 309 302 302 302 300 300 306 319 317 316 318 316 314 300 299 313 324 322 317 320 320 317 320
309 309 310 309 309 309 309 309 310 310 310 309 308 302 304 308 310 310 305 301 302 298 301 302 303 302 304 301 298 297 299 300 301 298 298 294 304 304 304 306 313 313 312 313 306 310 305 301 304 309 301 302 309 312 309 311 310 309 309 312 306 310 305 302 303 310 308 306 303 295 291 307 320 317 319 321 312 312 320 324 322 321 319 320 321 322 321
309 309 309 309 309 309 309 309 309 310 310 310 308 304 302 308 309 310 310 307 301 296 298 306 307 304 304 303 304 303 301 298 299 297 302 300 305 302 291 299 302 308 307 308 303 306 308 304 306 307 308 311 315 312 307 308 309 315 315 313 310 315 306 302 309 313 303 302 297 294 307 316 321 317 312 320 323 321 329 323 319 322 321 320 320 323 324
309 308 309 309 309 309 309 309 309 309 310 310 309 306 301 306 308 310 311 310 303 300 301 306 308 307 308 309 309 309 307 304 304 306 302 299 307 303 301 303 308 309 314 312 308 308 310 308 311 307 306 307 316 308 312 305 304 313 316 314 306 311 313 316 302 312 312 308 309 316 321 319 320 322 322 324 327 328 330 323 320 318 319 323 321 323 323
308 308 309 309 308 309 309 308 309 309 309 310 308 304 301 304 306 310 309 305 307 306 308 307 308 309 312 313 315 315 314 312 307 306 308 305 300 306 309 306 306 310 316 313 308 306 307 306 305 311 307 312 309 307 310 308 306 309 307 314 314 321 322 324 317 313 319 318 320 321 317 317 318 321 323 323 323 324 324 322 319 322 324 324 323 323 324
308 308 309 309 308 308 308 308 308 309 309 310 309 305 303 305 306 307 307 306 304 300 304 307 305 303 306 307 312 315 315 312 311 316 314 312 301 301 313 310 310 309 314 313 317 309 307 308 309 312 307 312 310 308 303 303 306 310 310 310 313 315 318 319 317 317 306 298 314 317 315 316 318 319 321 321 322 321 323 322 322 323 324 325 323 321 327
308 308 308 309 309 308 308 308 308 308 309 309 309 309 308 306 308 308 304 299 299 298 293 298 302 307 311 309 309 308 309 308 312 315 310 309 306 301 302 308 311 308 306 308 313 310 313 306 308 309 306 315 313 301 311 307 309 316 307 312 310 311 317 312 313 316 308 307 316 319 321 317 319 318 317 318 320 322 324 326 325 324 325 325 325 324 327
308 308 308 308 308 308 308 308 308 308 308 308 309 305 304 303 307 309 308 308 305 302 295 295 302 311 311 307 304 306 310 310 308 308 308 308 308 308 309 314 310 317 311 310 309 306 308 308 310 309 306 313 320 308 310 312 312 317 311 310 316 314 322 310 312 313 317 319 321 320 323 316 316 318 318 319 319 319 320 321 320 321 321 322 324 327 327
308 308 308 308 308 308 308 308 308 308 308 309 307 307 306 306 309 307 304 304 299 297 299 296 301 306 309 305 309 310 309 307 305 305 307 309 307 306 307 312 309 310 307 305 309 309 311 311 308 304 308 313 312 311 315 315 314 312 311 312 316 315 312 315 312 308 308 310 315 317 313 309 313 319 323 321 320 319 319 319 319 320 319 319 320 321 326
308 308 308 308 308 308 308 308 308 308 308 308 308 307 308 307 308 309 310 308 302 295 295 295 296 301 307 304 310 311 307 305 304 304 305 306 308 308 308 308 310 303 304 305 303 307 309 304 303 310 309 314 309 309 315 316 317 312 313 311 316 314 314 312 308 304 305 315 318 320 317 313 315 316 321 322 321 320 317 316 316 317 318 317 318 318 320
308 308 308 308 308 308 308 308 308 308 308 307 307 306 307 310 311 311 310 310 312 302 299 300 302 301 297 304 311 307 306 306 306 305 305 305 306 309 309 307 306 305 304 304 304 307 306 308 308 307 308 314 310 307 308 305 305 303 308 311 311 311 315 316 315 313 312 313 314 317 317 313 318 321 321 320 321 318 316 316 316 316 317 317 317 322 320
307 308 308 308 308 308 308 308 308 308 308 307 305 303 301 305 312 311 310 309 307 305 297 295 293 299 308 308 308 307 305 306 306 305 305 304 305 309 306 309 309 309 308 303 307 301 305 305 306 309 315 322 307 309 304 304 305 307 316 312 312 312 311 310 311 309 307 317 316 318 321 319 321 318 320 319 319 321 318 317 318 316 319 319 319 320 321
308 308 308 308 308 308 308 308 308 308 307 305 303 297 298 295 304 312 311 310 310 304 299 299 295 302 302 308 309 307 305 306 305 305 305 305 305 306 307 310 311 310 308 307 306 306 306 303 302 306 309 309 310 307 302 301 303 307 310 311 311 311 310 311 313 312 313 314 318 319 319 319 319 316 313 314 314 314 315 319 320 325 326 324 318 317 316
308 308 307 308 308 308 308 307 308 308 306 303 300 299 301 304 307 309 309 309 309 303 299 296 297 299 300 305 308 309 306 306 306 306 307 308 306 307 309 306 305 305 306 307 307 305 307 310 303 304 306 309 310 301 303 302 302 305 310 310 312 312 313 312 310 313 316 317 313 314 312 311 313 310 311 314 315 318 318 317 317 319 322 319 317 316 316
308 308 307 308 308 308 307 307 308 307 305 306 307 307 306 306 306 306 308 308 306 302 303 298 294 298 297 302 305 306 306 305 303 304 304 309 306 307 306 305 304 303 313 306 301 301 308 305 309 301 308 313 307 304 302 301 305 307 308 310 309 310 311 313 310 316 314 314 313 308 307 309 311 314 316 319 318 316 315 314 313 313 313 312 312 312 313
307 307 307 307 307 308 307 307 308 307 308 305 302 304 308 309 308 306 308 310 303 303 302 297 295 296 297 307 300 300 304 300 301 304 302 307 310 307 306 304 305 303 303 303 305 305 308 307 307 305 306 308 311 305 296 300 304 304 305 308 308 307 310 312 310 312 311 313 314 312 312 313 315 316 316 313 312 312 314 314 314 313 313 313 313 313 314
307 307 307 307 307 308 308 307 305 303 300 302 304 308 308 308 308 310 310 306 297 298 298 298 299 293 294 298 298 299 304 301 302 304 301 306 312 305 306 307 306 301 305 308 305 304 305 307 310 304 303 303 304 298 301 301 302 307 309 306 311 311 309 309 309 312 312 312 312 312 313 313 312 314 314 315 313 315 316 315 314 314 312 311 312 313 313
307 307 307 307 307 307 306 306 305 302 300 300 304 313 313 314 311 311 312 312 304 298 297 298 300 296 297 293 295 306 306 301 305 305 308 308 306 307 306 308 302 304 312 301 303 303 299 312 306 301 302 301 299 300 302 305 305 307 310 310 312 311 311 311 311 313 313 314 314 314 313 313 312 312 312 312 313 313 313 312 313 313 311 311 311 311 312
307 307 307 306 305 303 300 301 306 304 303 308 310 310 312 309 309 310 309 307 309 309 299 298 295 296 298 297 302 308 300 297 306 306 306 301 304 303 303 308 303 309 307 305 305 304 306 312 304 302 303 300 304 308 308 309 310 309 310 311 312 312 312 313 314 312 311 311 311 311 310 309 309 311 310 311 311 311 310 311 312 311 310 310 311 312 312
307 306 304 302 300 296 297 300 302 310 312 312 312 306 306 304 300 302 303 300 303 304 300 299 294 298 303 300 297 307 302 303 307 302 305 306 304 304 303 304 306 307 300 302 304 312 309 308 306 301 303 311 310 307 309 311 311 312 312 312 312 312 312 312 312 310 308 307 307 308 308 308 308 309 309 309 309 309 309 311 312 312 311 312 312 314 314
305 304 302 301 298 296 297 305 312 313 311 310 308 301 302 305 301 298 298 301 302 296 300 298 295 300 300 298 302 309 304 302 299 305 300 304 302 300 303 299 305 305 294 300 304 306 302 303 305 302 301 307 307 307 310 311 311 312 312 312 312 313 312 312 312 310 309 309 310 311 310 308 308 309 311 311 311 311 310 310 310 311 312 313 313 315 314
303 299 298 298 297 300 309 311 313 308 307 300 303 299 295 302 294 291 301 294 294 299 299 293 298 299 301 299 300 302 307 301 297 298 301 306 308 302 304 304 304 301 293 296 302 306 302 298 302 302 299 303 306 310 310 311 311 311 312 312 313 313 314 312 313 312 313 312 312 311 311 311 312 311 311 312 312 312 312 312 313 314 314 314 318 317 315
301 300 299 297 301 305 310 310 309 305 300 298 299 298 296 290 297 299 298 293 292 296 301 299 301 299 301 302 303 302 311 313 311 310 307 302 312 310 303 301 306 297 297 297 306 308 305 301 300 298 300 306 307 310 311 311 311 312 313 313 314 314 315 314 314 314 313 313 314 313 313 313 312 312 313 313 313 313 314 315 315 315 316 315 315 315 317
303 302 305 306 306 307 307 305 304 300 300 303 293 287 290 294 300 299 298 291 291 300 298 300 297 302 302 302 302 305 309 312 311 308 305 301 306 303 302 305 304 298 293 302 308 307 302 298 296 298 305 308 310 311 311 311 313 312 313 315 316 316 315 314 314 314 315 315 314 314 314 314 314 314 315 315 315 314 314 314 315 316 316 317 318 317 317
306 306 307 304 304 302 303 293 299 298 288 287 286 283 289 286 292 290 295 301 302 300 303 303 306 305 304 306 303 304 306 313 308 308 304 301 308 306 302 297 299 290 299 305 304 299 297 297 297 300 307 308 309 310 311 312 313 314 314 315 315 316 316 315 315 314 315 314 315 315 315 314 314 315 316 315 315 315 316 317 317 317 318 318 318 318 318
306 306 301 301 296 298 299 285 297 294 288 288 285 282 287 286 290 292 291 296 301 300 304 300 303 300 296 304 304 306 307 309 309 307 305 307 302 300 298 292 296 303 304 302 300 295 297 300 302 304 307 308 309 309 311 311 312 313 313 314 315 315 315 315 315 314 314 315 315 316 316 316 316 316 317 318 317 316 315 315 317 319 319 319 318 319 323
299 295 294 292 288 293 290 283 293 289 284 287 288 288 289 288 291 292 293 304 301 299 304 305 305 303 300 307 310 307 307 303 308 304 298 302 299 301 297 294 301 303 298 294 297 299 298 298 304 306 306 306 307 309 311 312 313 312 312 313 313 313 314 313 313 313 313 314 314 314 314 315 315 315 316 316 317 317 316 316 318 319 319 320 321 321 321
296 291 290 286 284 287 288 285 287 285 291 293 291 293 292 294 296 298 301 304 300 305 305 302 305 305 300 307 304 302 307 307 302 303 305 302 296 293 302 306 304 296 296 295 293 293 296 300 303 304 306 308 309 311 311 312 312 313 312 310 311 312 313 313 313 313 313 314 315 315 315 314 315 315 315 316 316 317 318 319 319 319 319 319 319 318 319
294 297 292 290 286 288 295 286 287 290 293 295 296 297 297 299 299 302 304 302 301 302 304 306 306 304 302 303 305 305 306 306 300 303 303 296 295 301 303 298 291 294 291 291 293 295 298 302 305 307 308 309 310 311 311 312 312 312 312 313 313 312 312 312 313 313 314 315 315 315 315 315 316 316 316 315 316 318 319 320 320 320 319 318 318 318 318
289 295 293 285 283 288 286 291 296 296 297 297 298 298 300 306 301 301 303 303 305 305 303 306 302 306 303 308 308 300 302 303 299 299 302 298 300 295 287 293 294 296 297 295 295 300 302 304 307 308 309 311 311 311 312 312 312 312 312 312 312 312 312 313 313 314 314 314 314 314 315 316 316 316 316 316 316 317 318 319 319 319 318 317 317 318 317
298 292 288 287 291 292 292 296 295 292 296 296 298 298 298 298 302 301 304 307 304 304 304 303 303 305 299 304 302 299 293 302 292 290 301 297 290 287 289 286 291 291 297 300 300 302 304 307 310 311 311 311 312 313 313 313 313 313 312 312 312 313 313 313 314 314 314 314 315 315 315 316 316 316 316 316 316 316 318 319 319 318 318 317 317 316 316
292 291 294 290 291 293 296 297 294 293 296 297 298 298 299 298 299 301 307 306 306 308 309 307 306 301 300 301 291 294 292 301 299 293 296 292 293 296 293 290 293 295 297 301 302 304 307 309 311 311 311 312 313 313 313 313 314 315 314 314 314 314 314 314 314 314 315 315 315 315 316 316 315 315 315 315 316 317 318 318 318 318 317 318 318 316 316
297 292 293 297 292 291 294 291 291 291 293 296 297 298 299 298 301 303 306 305 308 305 305 300 298 296 291 291 289 285 288 302 299 296 293 293 299 297 294 292 296 300 302 305 306 307 310 312 311 310 311 312 313 314 315 315 315 315 315 314 314 313 314 316 315 314 315 315 315 316 315 315 316 317 317 317 317 317 316 317 318 318 317 317 318 318 317
290 288 290 295 298 298 299 299 297 296 297 299 300 300 301 300 304 308 309 310 304 299 296 303 300 293 288 287 291 299 302 294 292 296 292 297 301 296 296 297 300 303 304 305 306 309 311 312 312 313 313 313 314 315 315 315 315 314 314 315 314 314 314 315 315 315 315 315 315 316 316 317 317 317 317 317 316 315 314 314 316 317 317 317 318 318 318
Wind_Speed
20 20 21 22 21 20 20 21 22 22 24 15 12 9 4 5 10 16 20 16 8 6 6 6 6 10 9 11 16 16 14 13 11 14 14 15 13 12 12 13 14 10 10 10 10 9 4 5 9 8 14 11 17 10 25 17 20 14 7 11 11 10 6 4 3 3 9 11 12 19 16 13 11 8 7 5 9 5 4 4 7 3 2 4 1 3 3
20 20 21 21 20 19 19 20 21 21 18 11 12 7 5 7 9 10 8 7 9 8 7 6 8 9 12 15 16 13 14 14 14 15 16 12 10 12 9 11 13 11 9 10 10 1 4 5 6 11 8 9 19 16 23 20 13 15 5 8 10 7 5 4 2 1 7 9 5 11 12 11 5 2 5 9 12 13 7 1 2 5 6 7 6 5 3
20 20 20 18 18 19 19 20 21 20 17 11 8 6 6 7 7 10 9 7 3 9 7 8 7 9 12 13 16 16 13 11 16 15 16 14 15 11 10 12 8 9 8 11 8 7 5 7 11 9 9 9 16 22 20 23 14 16 10 14 10 11 4 7 5 4 5 8 7 7 9 9 3 4 6 5 6 11 7 7 1 3 4 6 5 3 4
19 20 19 18 18 19 19 21 21 21 18 13 6 5 5 4 6 5 4 2 6 7 8 11 9 9 11 12 13 16 15 13 14 17 18 19 19 16 13 11 11 13 11 9 7 9 7 9 5 6 5 6 5 8 19 19 17 16 20 16 10 5 5 5 8 10 7 7 3 7 10 4 7 9 9 11 10 5 6 5 2 5 4 5 7 14 7
19 20 19 18 18 19 19 21 23 23 21 15 6 4 4 5 4 6 7 10 5 6 8 11 11 11 10 8 8 14 17 14 12 15 11 13 17 14 12 5 8 8 10 11 12 11 9 7 11 7 4 6 5 17 11 16 21 20 17 18 7 3 5 7 7 9 11 9 3 4 10 9 9 10 12 14 11 7 5 7 9 7 7 5 3 16 15
19 20 21 19 18 18 20 21 24 24 25 21 3 4 4 3 3 9 6 4 6 9 8 9 12 14 14 12 13 16 17 13 11 9 14 16 12 9 2 8 12 14 14 12 11 9 8 7 8 3 6 10 15 10 19 11 15 21 9 9 7 3 3 7 10 8 8 9 7 6 4 8 7 8 13 15 16 12 8 5 6 9 9 9 12 17 17
20 21 21 21 18 18 19 21 22 25 27 24 3 4 4 5 6 4 11 6 6 7 14 20 18 16 14 8 14 16 17 17 13 9 7 12 7 7 7 11 13 15 13 10 5 4 6 5 2 3 6 7 7 8 15 12 11 21 10 9 4 2 3 1 6 6 8 10 10 8 7 3 4 9 6 10 13 13 12 8 5 10 6 8 14 12 13
19 20 21 20 18 18 19 20 22 23 29 18 4 3 6 6 7 7 8 8 12 12 10 12 13 10 12 9 10 13 16 17 15 12 9 5 10 4 10 13 16 15 14 11 10 5 9 5 0 3 5 7 5 4 2 9 14 8 7 5 2 7 2 8 1 1 0 4 9 10 9 6 5 5 11 9 5 6 7 7 10 11 4 7 17 14 11
19 20 20 19 17 17 17 19 20 22 24 8 8 6 7 7 5 5 9 11 6 8 9 10 11 9 9 8 11 13 15 15 14 10 5 10 9 11 15 13 16 14 14 13 8 11 7 8 13 6 6 3 1 1 6 10 12 16 10 5 1 10 2 4 3 1 1 3 7 14 11 7 7 10 9 8 9 9 5 4 2 5 9 5 10 6 5
18 19 20 19 17 16 17 17 18 19 20 6 7 5 8 8 7 8 6 7 5 9 10 12 10 8 7 11 13 7 10 15 12 3 2 6 12 13 18 19 6 4 9 7 5 8 10 10 10 7 3 2 2 3 9 12 12 8 8 2 6 5 3 3 3 2 2 1 8 5 6 6 9 12 12 10 9 3 4 6 11 7 3 7 8 5 4
17 18 19 19 18 18 18 17 17 17 13 10 7 7 9 8 10 9 5 8 6 5 9 9 7 8 17 17 17 13 16 12 11 7 5 9 12 12 13 15 8 3 3 3 8 6 7 6 7 5 5 6 6 4 9 16 15 7 2 6 2 5 4 1 3 1 1 2 6 5 2 4 4 0 2 3 2 3 5 7 9 7 2 3 6 8 10
17 18 18 18 18 17 17 16 15 15 12 10 8 9 8 8 8 7 5 6 7 7 7 7 10 12 16 18 17 8 4 10 7 7 7 8 10 12 16 12 6 0 7 5 9 10 8 7 6 5 7 6 8 10 13 15 13 6 1 1 3 5 4 2 1 2 1 3 6 4 9 5 3 0 4 6 9 7 6 5 6 5 8 11 11 8 9
17 17 17 17 18 16 15 16 15 14 13 11 9 9 8 8 7 6 4 5 8 8 9 10 16 15 16 17 18 14 7 11 7 10 13 6 6 11 10 7 4 6 13 10 12 7 7 3 5 4 8 9 9 12 12 14 14 10 7 2 3 2 4 3 1 2 1 1 2 1 2 1 1 3 4 4 4 5 6 4 4 6 3 6 10 9 9
16 17 17 16 17 17 16 17 15 14 14 10 11 9 9 9 7 5 3 5 7 7 9 12 11 15 19 18 15 17 13 13 11 11 6 12 8 14 13 7 6 3 6 6 5 5 4 3 3 4 5 6 4 5 8 12 10 7 8 5 6 4 3 3 1 1 2 1 1 5 3 7 2 2 3 1 0 2 3 0 3 1 2 3 5 4 6
17 17 17 17 16 17 16 17 15 15 14 13 10 9 8 8 7 7 2 4 8 12 8 3 11 16 17 14 13 11 10 10 12 11 15 13 13 9 2 6 16 3 7 6 4 3 1 2 3 2 0 1 2 2 2 5 3 7 5 4 4 1 4 1 1 2 1 1 3 3 1 4 1 1 1 5 3 4 2 3 4 3 4 5 5 7 7
16 16 16 16 16 16 16 16 16 14 14 14 9 9 10 7 7 7 4 4 5 6 1 9 15 14 12 10 13 11 8 8 8 9 8 7 11 16 13 12 10 4 1 4 0 1 2 2 3 3 3 2 2 3 3 2 3 4 6 5 5 3 6 8 3 1 1 1 1 1 1 2 0 2 1 2 2 5 4 2 4 4 7 5 4 4 4
16 16 15 16 15 16 15 16 16 13 14 13 11 10 9 8 5 5 6 5 4 10 13 17 12 12 8 8 12 9 8 7 8 7 8 10 15 11 13 16 13 3 2 2 2 1 2 3 3 3 3 5 5 4 1 1 2 4 3 5 8 11 4 7 4 3 3 3 2 2 1 1 3 5 4 6 7 11 8 2 4 5 8 2 7 7 6
17 16 16 15 15 15 15 15 16 14 14 14 10 10 9 10 6 8 6 4 6 9 9 8 13 9 8 7 7 8 8 7 8 6 3 9 6 10 13 10 8 10 5 3 2 4 3 3 3 3 4 3 5 2 3 2 3 2 1 3 3 4 5 2 4 4 4 10 4 1 2 1 3 3 3 5 7 8 3 3 1 6 5 5 10 8 7
16 16 16 15 14 14 14 14 15 16 16 13 11 10 7 7 10 8 6 6 4 7 12 16 12 11 8 10 7 7 6 8 6 5 9 6 3 15 16 13 7 5 6 4 5 3 2 2 2 2 3 3 4 2 1 2 1 1 4 2 0 1 3 2 1 2 1 3 3 3 0 0 3 4 8 3 2 1 2 1 3 5 5 8 8 11 9
14 15 15 15 14 14 14 14 14 15 16 14 10 9 11 12 9 8 8 7 4 9 12 13 11 9 8 9 8 7 8 7 5 5 5 5 8 14 10 3 6 6 6 8 2 1 3 4 3 1 3 3 1 1 1 2 5 3 1 1 3 2 1 4 4 1 5 6 5 3 2 3 2 2 3 5 2 6 5 2 1 3 7 11 11 10 8
13 14 14 15 14 14 14 13 13 14 15 14 11 10 10 6 8 10 9 8 6 8 8 6 7 13 12 11 11 10 7 6 6 5 2 4 4 4 2 3 6 5 4 4 4 5 4 5 4 2 0 3 3 2 1 2 3 11 10 3 5 3 3 3 1 1 6 5 3 3 6 5 9 2 2 2 1 4 2 3 3 7 7 6 8 9 8
14 13 14 13 13 13 13 13 12 13 14 14 12 8 8 8 9 9 10 8 5 7 9 15 14 14 15 14 12 10 9 7 8 3 4 4 2 2 3 6 5 3 2 2 3 4 4 3 4 4 4 2 0 2 2 2 3 2 11 7 3 4 2 2 1 1 2 2 4 4 2 3 3 7 6 5 4 4 4 8 7 7 7 4 8 8 9
13 14 13 13 13 13 13 12 12 12 13 14 11 7 8 10 10 11 11 7 6 8 9 11 11 12 13 15 13 10 9 3 3 4 3 2 3 2 1 3 3 5 2 3 3 3 5 5 4 3 4 2 2 2 3 3 3 3 2 7 1 3 2 3 3 3 8 6 7 3 7 6 6 4 4 6 8 9 9 8 8 7 4 5 8 7 7
13 13 12 12 12 12 13 13 12 12 13 13 10 8 9 8 10 9 8 6 4 8 8 5 5 4 6 7 6 10 10 9 7 1 3 2 1 3 1 2 2 4 2 3 2 2 4 5 4 2 2 1 3 1 1 3 2 2 5 1 3 4 7 5 3 2 13 5 15 15 9 7 9 9 9 8 8 7 5 5 5 5 6 7 7 6 5
12 12 12 12 12 12 12 12 12 12 12 13 12 9 9 8 6 6 8 7 6 5 6 8 7 12 7 4 2 3 6 3 1 1 4 4 3 2 3 3 3 2 5 7 4 4 3 4 4 3 3 3 1 2 3 3 1 1 2 2 3 3 6 8 4 4 5 9 7 7 17 9 9 9 9 8 8 9 7 6 7 8 8 8 8 8 5
12 12 12 12 12 12 12 12 12 12 13 14 12 8 8 8 8 8 8 7 5 4 4 5 7 9 5 5 3 3 3 1 3 6 5 6 7 5 3 2 4 2 3 5 5 6 4 4 3 5 3 4 2 2 2 1 3 1 1 3 1 4 2 5 5 3 2 3 4 1 1 7 8 9 8 7 8 11 13 10 11 11 11 9 8 7 8
12 12 12 12 12 12 12 12 12 12 12 12 9 7 8 9 8 7 6 7 8 3 4 5 7 12 11 16 14 7 5 3 4 4 4 6 7 5 4 3 3 3 4 5 4 5 3 3 3 4 3 1 2 2 1 1 1 1 1 2 5 5 4 4 2 5 1 2 4 4 1 0 4 9 6 7 5 9 7 5 8 8 9 8 8 8 7
11 11 11 11 12 11 11 11 11 12 10 13 10 8 8 8 9 7 7 7 6 5 7 7 8 11 14 15 13 10 5 5 5 5 5 6 6 3 2 3 2 3 4 3 4 2 2 4 3 4 1 2 4 3 1 3 1 0 2 3 4 4 4 5 6 8 6 4 4 4 7 5 5 4 1 2 4 4 8 7 7 6 5 7 6 6 7
11 11 11 11 11 11 11 10 11 12 13 11 8 9 8 9 9 7 8 5 2 3 5 8 9 7 5 6 5 6 6 4 5 5 3 6 6 3 3 4 4 3 3 3 4 4 3 4 5 3 1 2 1 3 2 2 2 3 5 10 10 5 5 3 6 8 8 6 5 3 3 3 1 1 4 4 5 6 8 8 7 7 5 6 6 4 4
10 10 10 11 11 11 10 10 11 12 12 8 7 5 6 2 2 2 6 7 5 3 3 5 5 4 7 6 7 7 8 8 4 4 6 4 4 3 4 3 3 3 2 2 2 3 2 3 3 3 1 1 2 3 2 2 3 3 1 11 11 10 12 12 10 7 4 2 3 1 1 2 1 5 7 6 7 7 6 5 7 7 5 5 5 5 5
8 9 10 11 11 10 11 10 10 11 10 6 5 3 3 5 1 3 9 8 8 4 3 3 7 8 7 5 7 7 6 7 5 6 7 7 4 4 3 2 2 3 2 3 2 2 2 2 4 3 3 5 3 2 2 3 3 2 8 7 7 9 10 9 5 5 5 3 2 0 1 3 4 6 9 7 8 7 4 4 5 6 5 4 5 5 6
8 9 10 10 11 11 11 10 11 9 6 6 6 3 3 2 2 8 10 6 6 4 4 5 5 2 3 5 5 3 6 7 7 5 4 4 4 4 3 3 3 4 3 2 0 2 2 2 3 3 2 4 3 3 3 2 3 3 6 8 5 7 7 7 6 3 1 1 2 1 5 8 7 7 2 3 3 3 3 4 4 3 5 5 6 7 7
8 9 9 9 11 11 11 11 11 9 6 9 15 19 20 23 22 18 8 5 3 4 3 3 4 4 3 4 2 6 5 2 4 4 4 4 3 3 2 5 3 4 3 2 1 1 1 3 2 1 1 2 1 1 2 2 2 2 5 8 8 7 6 4 4 2 5 6 7 6 4 4 4 4 3 3 3 4 5 7 8 7 6 5 6 7 7
7 8 8 9 10 11 11 11 12 13 12 8 6 6 6 12 13 15 6 2 3 3 2 3 3 4 6 6 6 3 5 4 4 4 3 3 2 3 3 4 4 1 3 1 2 2 2 1 2 2 2 1 1 0 1 3 3 2 4 11 9 8 4 2 3 6 7 7 7 7 5 5 4 5 6 7 7 6 5 5 5 7 7 7 7 8 7
7 7 7 8 9 10 13 12 7 5 6 7 8 5 4 5 2 4 6 2 2 3 3 3 3 3 4 4 4 3 5 5 2 4 4 3 3 3 3 2 2 0 2 2 2 2 2 2 1 1 2 3 2 0 2 2 4 1 4 8 5 4 6 9 10 8 8 7 7 7 9 9 9 11 9 7 7 7 8 7 7 7 7 7 8 9 9
5 5 6 8 9 9 7 8 6 5 4 6 4 3 4 4 3 2 4 3 3 3 3 3 2 5 5 5 2 1 3 5 5 4 1 2 2 2 3 1 1 3 2 3 2 3 2 1 1 0 5 2 2 4 5 4 4 13 16 15 12 12 10 11 10 9 9 8 12 12 11 11 9 9 8 8 8 7 7 7 6 6 7 7 7 7 7
5 5 6 6 5 4 5 5 3 6 4 1 2 5 2 1 2 2 3 4 4 3 4 4 4 5 2 5 4 1 3 3 3 2 2 2 2 2 3 2 2 1 2 2 2 2 0 0 1 1 1 0 3 3 7 12 16 15 13 12 10 11 11 10 10 10 10 11 12 9 8 8 8 7 7 6 6 7 7 6 5 5 5 6 6 6 5
2 3 3 4 4 4 3 4 3 2 11 10 4 4 2 2 3 3 3 4 4 5 4 4 6 4 3 3 5 2 1 1 0 1 0 1 1 2 1 1 0 1 0 2 1 2 2 0 1 1 1 2 4 7 11 14 13 13 12 10 10 10 9 8 8 9 9 8 9 8 7 6 5 5 5 6 6 7 6 6 5 5 5 5 5 5 7
1 2 3 3 2 3 2 3 4 9 5 2 3 3 2 3 2 2 4 3 3 4 5 5 5 3 4 5 4 1 3 1 4 2 2 2 1 1 1 1 1 1 0 1 2 3 1 1 1 2 2 2 4 10 13 12 12 11 11 10 8 7 6 7 6 6 5 4 3 4 4 5 6 6 5 5 5 5 5 6 6 5 5 5 6 5 7
2 3 3 3 5 3 4 7 5 4 2 3 3 2 3 2 2 2 3 2 2 3 4 5 5 4 7 4 4 2 5 4 5 4 3 1 1 1 2 1 0 1 1 1 1 2 0 1 2 1 5 5 4 8 12 10 10 9 8 8 8 7 5 6 5 5 3 4 4 4 4 5 6 6 6 6 6 6 7 6 6 6 6 6 6 7 6
3 3 3 3 4 5 4 6 4 3 3 3 2 3 2 1 3 2 2 2 2 2 3 4 2 3 5 8 3 2 2 3 1 2 2 1 1 1 1 1 0 1 0 1 1 1 0 0 2 4 6 7 10 11 11 11 10 10 9 8 7 5 4 5 3 3 4 3 3 3 4 5 5 5 6 6 5 5 5 5 6 5 7 7 7 6 6
3 3 2 4 5 5 5 3 2 2 2 1 2 1 1 2 1 2 2 2 3 2 4 3 4 1 1 4 4 2 2 1 2 1 2 1 2 2 2 1 0 1 1 1 2 0 1 0 5 5 4 7 10 11 11 10 9 9 9 7 6 5 5 4 4 4 3 3 3 4 4 4 5 5 4 4 4 5 7 7 6 7 8 8 10 10 8
9 8 4 3 3 2 2 1 1 1 0 0 0 2 2 1 1 2 1 2 2 2 2 3 2 3 2 5 4 2 0 0 1 1 1 1 1 0 1 1 1 0 2 2 0 1 1 3 6 5 4 8 9 9 9 9 8 7 7 6 5 6 7 7 7 6 6 6 4 4 5 5 5 5 7 6 6 6 6 5 6 7 7 9 9 10 10
4 3 2 1 1 1 1 0 1 1 1 1 1 0 2 2 2 2 3 1 1 2 2 2 1 1 2 3 3 0 1 0 0 1 1 0 1 1 1 1 1 2 0 1 0 0 5 4 5 5 6 7 8 8 7 8 8 8 7 9 8 8 7 7 6 6 5 4 4 4 4 5 6 5 4 3 6 7 7 7 6 7 8 9 8 7 6
1 1 1 1 1 0 0 1 2 0 2 1 1 4 3 2 3 4 3 2 1 3 1 2 1 1 4 1 0 0 0 0 1 1 1 1 2 1 1 2 3 2 1 2 1 0 4 4 4 4 8 8 8 9 9 8 7 7 7 8 8 9 8 8 8 7 7 7 8 8 6 5 6 6 5 5 6 6 6 6 7 7 7 7 5 4 4
1 1 0 0 2 1 0 0 0 1 3 3 4 5 6 6 2 1 3 1 4 2 0 6 4 4 6 2 1 1 2 1 0 1 1 0 1 1 2 1 1 2 2 1 1 6 5 3 4 6 8 8 9 9 9 8 8 9 9 10 10 11 11 11 10 8 8 8 8 8 8 7 6 5 5 5 5 5 6 5 6 6 6 6 5 5 6
1 2 1 1 1 1 2 1 3 4 3 3 5 3 1 2 4 2 2 5 4 5 4 4 3 4 3 2 1 1 1 1 1 1 1 1 1 1 1 1 1 0 1 1 4 5 4 5 6 6 7 7 7 8 8 8 7 7 7 8 9 10 11 10 10 9 9 8 8 7 6 7 6 3 4 3 4 3 3 3 5 5 4 5 5 3 3
2 2 1 1 1 1 2 4 4 5 6 3 2 3 2 1 1 2 5 5 5 4 4 2 1 1 2 2 2 1 1 2 2 2 1 1 1 2 2 2 1 1 1 2 5 3 5 5 5 5 5 6 7 7 6 5 7 7 6 6 8 9 9 10 9 8 8 8 7 6 5 5 6 5 4 4 4 3 3 3 3 3 2 3 5 5 5
2 1 2 1 2 2 2 1 2 4 1 2 3 2 3 3 2 4 5 3 5 5 6 5 2 2 2 1 1 1 1 2 1 0 1 1 2 0 0 0 1 1 5 5 5 3 4 4 4 5 5 6 4 3 3 3 4 5 6 5 5 6 5 6 7 7 7 6 5 5 4 4 4 3 3 3 3 3 3 3 2 2 2 2 2 3 3
1 1 2 1 4 0 6 7 4 2 1 2 2 2 2 1 4 4 2 3 3 3 1 1 2 1 2 1 0 0 1 1 1 1 1 0 2 1 1 1 5 4 4 4 4 5 6 5 4 3 4 4 4 3 3 3 4 3 4 4 3 3 4 4 5 6 5 5 6 5 4 3 3 3 4 4 3 3 3 1 1 2 1 1 2 3 3
2 1 3 3 3 4 4 3 5 6 6 6 7 6 3 3 7 5 6 4 2 2 1 1 1 0 1 0 0 0 1 2 1 0 0 2 2 1 1 4 4 3 4 3 5 5 4 3 3 4 4 3 2 2 2 3 3 3 3 4 4 4 4 3 3 3 3 3 3 5 4 3 3 3 3 3 3 3 3 3 2 2 2 2 2 1 2
1 1 3 2 1 3 3 1 4 4 5 3 1 5 5 6 5 2 1 1 3 2 1 1 1 1 0 0 0 1 1 2 1 1 3 1 1 2 5 4 4 4 4 4 4 4 4 4 4 4 3 3 2 2 3 3 3 3 3 3 3 3 4 3 3 3 3 3 3 3 3 3 3 3 3 3 3 2 3 4 3 2 2 2 3 3 2
Wind_Direction
338 339 340 340 336 335 336 339 339 340 344 355 346 323 305 282 264 292 302 296 209 156 216 206 218 228 243 252 249 252 254 257 261 264 257 264 259 253 240 254 267 255 284 298 302 300 275 306 214 209 189 201 194 185 196 193 201 221 201 198 212 214 230 218 235 212 193 206 182 184 190 199 216 204 211 198 235 219 200 181 180 182 173 177 54 96 242
337 338 339 337 334 334 337 338 339 340 355 349 331 318 310 297 288 307 278 285 257 230 221 220 220 232 240 244 256 250 251 250 249 246 256 261 258 254 254 258 247 266 232 240 256 343 324 264 278 231 218 215 183 197 194 195 203 201 154 207 169 237 199 186 49 319 173 213 173 191 187 188 206 192 207 194 205 223 227 89 113 169 197 166 136 143 229
337 338 337 334 334 336 336 337 335 337 342 348 335 310 306 285 258 232 277 289 252 238 230 246 258 250 245 242 244 247 248 246 250 260 261 261 260 264 261 271 286 236 240 267 284 299 273 303 290 290 260 253 181 197 199 188 214 199 178 191 148 210 182 181 190 193 176 185 207 197 193 193 177 233 241 255 222 201 190 244 133 197 248 153 108 135 234
337 338 335 335 337 337 337 335 334 333 335 341 325 294 294 319 324 301 284 309 256 248 259 256 256 264 266 260 248 245 252 244 240 242 253 257 265 269 283 283 312 302 278 245 259 255 234 251 295 303 325 253 222 217 196 189 205 193 204 186 152 194 180 185 174 179 189 211 202 187 151 174 184 197 229 250 255 249 179 149 129 186 225 176 182 149 191
336 336 336 339 339 340 338 335 333 331 329 337 314 260 230 315 251 332 332 326 324 291 232 238 246 260 273 271 284 266 244 243 253 231 251 237 248 253 244 290 264 276 289 283 267 263 271 248 268 277 328 327 298 335 261 196 188 207 207 195 192 154 181 172 166 179 190 209 232 294 170 167 190 189 207 232 251 242 228 162 208 170 117 210 233 156 158
335 336 338 339 340 341 339 336 335 333 327 335 278 266 221 254 323 345 8 320 296 326 319 323 308 287 264 257 263 273 280 267 252 226 238 254 244 251 23 273 279 279 276 306 298 285 268 258 251 313 27 2 352 347 330 283 200 196 205 172 195 129 167 180 167 184 215 205 237 220 211 220 208 204 199 206 229 243 236 193 205 153 155 192 200 169 171
333 336 337 339 340 341 341 338 338 336 331 330 192 299 295 332 337 300 13 337 305 308 290 287 281 292 286 272 255 254 256 260 258 262 297 269 215 149 241 256 258 257 269 266 274 324 300 269 277 76 358 16 3 355 328 354 333 193 192 173 168 120 168 180 199 209 209 254 254 261 253 241 294 300 269 201 203 219 234 229 188 165 185 188 176 190 173
332 334 337 338 340 342 340 340 341 340 336 325 288 307 336 14 340 328 325 281 282 284 288 296 300 293 299 285 265 262 253 260 266 259 253 285 285 242 247 250 251 261 259 265 274 319 355 343 228 12 30 25 31 333 266 312 322 318 214 176 158 168 253 205 159 55 255 264 255 252 249 252 268 278 280 272 243 243 228 230 236 245 220 148 163 184 197
330 334 336 338 341 341 342 343 345 346 341 349 4 328 21 321 324 333 316 314 305 311 312 307 299 299 293 290 282 260 258 256 261 268 299 306 297 295 274 251 253 248 261 276 303 3 348 357 335 9 36 45 22 68 302 319 312 315 297 194 109 164 239 189 166 117 308 282 250 227 237 254 261 265 254 253 250 243 248 248 211 197 226 179 146 177 198
327 331 334 337 341 341 344 345 346 352 340 346 341 327 337 317 331 322 310 289 301 311 298 290 297 289 311 309 295 321 313 316 322 337 350 318 305 298 301 274 278 275 261 263 10 343 0 345 334 328 308 265 310 320 294 308 306 293 300 139 133 169 116 133 101 141 239 267 301 282 210 216 239 243 253 263 273 356 354 331 315 270 183 135 161 196 205
324 328 330 334 340 342 344 345 348 353 353 1 344 315 319 334 332 325 329 303 294 304 323 308 328 327 326 335 319 338 309 328 349 341 314 313 302 323 327 314 266 332 21 317 282 344 340 332 299 291 296 291 303 300 298 298 293 297 359 324 84 142 117 128 111 138 136 252 265 292 319 231 231 241 35 352 343 14 338 354 320 283 154 176 142 129 119
320 324 326 331 337 341 344 343 347 349 352 346 322 295 293 315 313 297 333 311 295 322 329 307 332 315 331 329 330 270 332 338 314 306 302 299 300 331 328 330 327 63 352 312 353 340 330 316 318 306 292 308 316 301 284 280 287 285 342 0 47 67 76 77 76 97 202 32 25 349 265 253 231 274 40 34 17 13 24 24 14 13 84 98 86 81 73
315 318 322 327 331 337 342 341 342 344 345 342 332 303 309 311 289 298 327 297 290 324 324 318 311 318 330 333 344 342 33 276 335 327 324 302 354 324 296 306 348 319 308 357 346 341 9 340 318 303 312 319 301 299 290 281 274 283 296 326 79 92 94 87 58 98 60 68 97 123 231 259 306 5 336 35 30 31 29 3 56 49 35 110 120 126 122
311 314 318 323 327 334 341 338 338 340 341 340 328 305 297 307 308 322 330 319 299 297 311 298 309 338 340 335 335 343 343 346 348 311 277 273 191 220 239 303 353 214 325 1 330 350 339 5 342 3 346 339 318 284 283 283 264 232 249 308 1 25 75 82 0 101 183 156 139 215 332 316 29 1 342 358 261 72 102 139 288 64 44 114 135 120 131
307 310 314 318 324 332 338 335 338 337 336 338 322 306 300 301 304 302 307 283 299 303 276 297 338 329 329 323 355 1 7 352 344 343 324 315 293 275 40 201 257 14 9 357 350 348 306 314 315 332 267 231 262 287 287 266 311 287 254 202 203 112 233 78 90 322 330 92 356 353 13 275 293 256 336 14 355 355 110 73 321 333 31 73 97 114 109
303 306 309 314 320 327 334 333 334 335 335 338 326 315 296 290 298 293 306 317 301 290 158 352 323 330 322 343 356 1 4 334 347 322 321 329 347 359 329 344 324 64 269 267 265 340 309 255 278 247 239 223 246 303 239 327 284 212 221 219 209 202 105 134 192 180 79 35 252 201 248 248 28 146 30 336 1 25 40 47 297 300 7 37 110 109 92
300 303 306 310 316 323 332 331 332 337 333 344 334 321 295 309 315 299 305 293 270 262 307 304 316 331 315 350 352 4 350 358 340 353 328 336 331 352 345 335 323 283 293 334 302 309 277 272 269 283 286 269 247 198 298 217 326 320 305 258 207 207 165 130 168 198 156 108 136 262 257 252 288 344 7 20 25 60 57 33 295 308 312 304 74 82 102
298 300 304 307 312 319 325 328 332 335 335 339 331 317 294 293 291 312 295 285 293 287 263 304 345 325 337 351 330 339 348 344 349 332 304 311 327 8 330 325 335 330 304 239 186 232 269 254 222 215 268 254 272 35 244 115 208 231 300 70 33 26 22 23 181 225 198 168 196 194 294 281 304 359 56 39 59 66 91 186 241 300 334 36 86 79 79
296 299 301 304 309 314 320 325 330 332 335 336 330 311 279 317 320 306 282 286 291 282 297 310 300 286 318 334 331 343 353 341 356 351 334 335 17 338 308 269 295 325 1 334 346 293 255 239 238 238 219 264 253 281 17 201 242 348 303 322 5 65 88 19 357 295 333 332 224 234 114 174 336 354 15 1 55 89 181 191 257 301 9 30 55 65 55
292 295 297 301 306 310 315 323 328 331 332 336 339 315 300 298 295 307 289 286 305 285 290 280 267 301 347 327 330 341 344 344 17 343 349 317 331 335 333 4 26 341 347 7 311 258 232 245 236 239 246 252 350 270 7 2 6 57 122 82 85 338 113 178 142 117 41 20 11 6 288 280 334 75 8 14 124 218 195 182 279 57 55 51 42 43 45
292 292 294 298 301 305 310 318 326 328 331 335 339 324 311 303 316 318 317 324 313 308 291 276 331 327 313 303 297 304 311 316 329 328 320 300 321 333 358 356 329 334 354 346 337 332 350 336 336 292 325 74 272 357 15 300 60 6 8 17 71 343 41 12 18 180 122 147 172 199 225 269 304 182 142 265 141 191 183 133 18 4 44 60 59 37 36
291 292 293 294 296 302 306 315 323 325 329 333 333 316 292 307 322 315 325 326 283 258 267 294 293 283 282 274 269 273 277 293 296 313 338 313 304 274 253 280 310 349 30 321 337 334 12 330 281 349 4 347 185 75 273 48 37 296 359 8 76 299 127 188 151 271 97 160 198 230 25 288 359 55 60 66 42 31 24 60 60 48 26 39 54 40 31
288 292 294 294 298 298 303 312 319 324 326 331 334 316 306 313 310 313 308 298 277 266 267 263 265 265 265 264 254 251 263 260 269 264 245 288 302 284 325 10 359 323 15 32 355 293 300 327 290 302 292 6 50 11 52 83 87 60 50 297 93 198 219 232 67 351 2 4 1 305 53 45 39 71 101 86 65 59 60 60 64 54 29 37 59 37 28
285 290 293 295 295 297 300 305 315 319 321 324 324 312 306 305 297 309 321 297 293 311 295 252 254 245 246 272 233 212 224 238 246 275 78 112 282 305 216 81 335 307 11 342 13 289 306 289 272 304 288 342 321 83 63 70 93 160 138 122 331 15 16 52 64 74 61 331 319 341 1 30 41 44 44 59 72 73 70 72 72 75 56 56 52 36 23
285 286 292 295 295 296 298 302 312 318 320 319 323 302 292 288 288 322 320 321 326 346 312 313 290 261 278 44 33 263 234 273 2 218 216 176 198 241 298 347 323 307 303 312 312 294 263 289 311 307 308 273 36 26 318 112 44 269 103 180 136 316 319 69 10 102 133 182 235 309 323 338 33 34 22 20 28 41 38 50 53 51 40 40 55 25 339
282 282 286 291 295 297 297 301 307 311 313 318 317 303 298 293 302 304 290 264 266 267 279 288 296 326 359 319 301 247 61 161 274 262 234 238 217 233 281 345 296 287 293 276 266 260 277 284 290 281 282 282 290 161 189 147 169 187 132 123 128 166 117 126 230 138 202 164 171 136 101 341 11 33 34 24 36 35 20 27 39 34 34 21 24 45 24
282 286 287 291 294 297 300 304 308 311 313 313 311 297 284 279 277 273 272 288 318 285 219 272 307 307 339 328 302 277 222 230 227 255 262 231 243 240 226 227 271 299 286 289 268 259 239 263 287 273 304 332 325 288 125 336 125 132 109 128 150 121 95 156 94 72 89 184 197 97 85 229 33 34 22 7 354 82 78 17 39 35 38 20 17 15 9
282 284 286 286 290 294 299 302 303 308 314 316 303 286 271 271 268 265 272 271 278 295 303 296 295 300 317 280 265 249 206 199 234 249 244 257 241 233 302 300 288 250 259 296 318 313 312 274 268 289 320 35 339 322 312 145 145 164 212 92 70 100 166 156 139 154 194 190 137 146 153 144 122 172 175 86 24 69 70 48 33 24 35 31 12 15 354
278 281 283 287 288 293 296 299 303 310 317 316 298 288 272 248 250 265 288 302 14 332 305 286 277 272 267 339 325 203 187 199 212 231 248 269 265 240 221 210 216 254 300 274 263 277 253 272 296 313 41 244 196 278 293 178 144 62 45 74 75 41 49 132 145 102 84 89 89 91 112 120 302 61 86 50 26 39 54 48 32 9 12 15 353 352 352
273 278 285 287 288 290 296 301 308 311 320 313 296 280 271 189 110 87 14 8 12 1 297 317 306 280 333 308 263 224 185 194 219 223 231 238 255 250 216 202 233 232 242 258 307 295 341 299 284 292 86 27 329 308 318 23 89 252 155 92 77 69 59 55 51 70 102 62 85 50 57 358 354 65 55 53 31 39 43 32 23 349 342 337 329 335 316
269 275 278 284 290 292 294 297 304 311 312 298 303 286 238 169 110 30 9 357 5 341 302 272 270 304 298 242 252 246 205 190 195 216 227 221 220 227 229 252 260 227 243 229 226 226 269 279 318 333 3 20 49 338 37 14 74 50 88 80 89 90 79 73 69 67 72 42 22 291 298 34 15 60 41 32 31 7 20 22 347 322 312 328 332 311 307
269 271 272 280 287 291 292 295 299 307 295 279 264 272 339 336 310 311 318 321 322 280 259 292 291 253 268 276 238 237 223 208 212 210 219 202 212 199 230 198 242 193 209 257 276 357 281 269 286 312 9 309 1 357 347 31 126 153 129 117 96 80 85 86 79 70 59 85 355 32 65 55 44 63 58 11 355 359 356 327 310 341 337 323 290 285 280
262 268 276 281 285 291 294 293 295 296 283 285 294 285 274 270 268 266 268 274 252 244 266 281 269 299 275 297 290 198 207 181 221 185 239 171 222 168 219 175 245 270 102 77 214 245 240 214 198 273 180 138 23 7 347 292 40 57 109 108 96 91 89 90 86 45 43 45 47 77 73 55 26 19 352 358 28 21 10 1 351 330 319 327 332 334 342
262 271 279 285 288 293 293 296 296 290 275 264 271 242 231 236 240 244 233 218 259 267 263 257 265 258 275 301 282 137 187 211 202 176 229 191 196 175 193 191 178 219 154 189 201 206 271 295 229 160 105 350 73 98 232 281 294 326 69 107 103 98 97 75 51 73 61 53 45 33 24 33 18 23 30 20 5 1 358 335 340 348 352 354 354 351 352
261 268 282 291 291 291 295 290 293 268 272 268 256 269 102 148 118 158 161 204 254 211 198 222 233 285 293 274 227 184 219 222 241 176 214 198 216 226 169 172 73 269 204 245 290 254 281 244 255 164 175 133 108 135 242 233 228 211 52 67 53 69 71 70 58 49 44 41 42 29 17 16 24 23 9 6 7 2 6 0 0 358 349 353 346 342 337
255 276 283 288 294 289 289 268 231 259 247 249 262 78 106 161 125 197 208 228 264 325 318 295 294 271 277 288 342 62 338 264 260 160 111 123 222 221 265 170 171 222 139 152 221 189 220 247 32 82 147 146 163 213 202 250 96 76 68 65 56 60 58 47 46 45 39 41 44 32 20 10 24 18 356 1 354 353 352 344 341 1 349 338 327 321 317
259 274 280 287 292 279 261 258 227 211 252 343 30 318 300 329 243 238 213 228 214 225 264 306 286 261 262 313 305 19 354 289 357 313 145 185 187 164 213 200 219 133 196 211 225 234 344 340 272 316 151 296 165 119 66 50 66 74 73 67 62 58 53 49 42 41 40 31 32 27 18 3 359 358 343 337 340 344 334 329 344 334 320 309 303 299 312
250 272 292 271 266 292 287 224 227 292 219 253 316 294 181 183 209 188 180 222 191 182 220 220 254 265 270 269 289 303 291 292 41 307 58 347 338 216 194 220 157 82 183 213 164 114 120 24 95 341 320 104 63 72 83 87 87 80 77 73 67 60 57 51 41 45 36 28 17 5 354 349 337 323 319 325 321 316 313 315 311 302 302 302 312 325 327
197 252 254 251 268 264 288 338 339 328 320 276 214 268 211 191 247 223 192 186 153 206 206 220 247 233 267 278 255 84 39 282 297 321 32 20 39 325 42 342 342 4 355 3 327 338 103 118 109 129 266 72 58 63 73 77 81 85 85 85 78 69 65 64 54 51 50 51 358 352 343 335 327 325 325 319 317 309 307 305 304 313 320 327 322 326 323
222 218 244 234 228 255 281 274 279 306 261 267 203 234 259 189 195 256 152 163 206 218 188 229 234 238 237 269 316 354 357 9 19 354 346 344 66 339 290 338 22 37 286 132 80 340 293 155 158 134 42 56 70 69 87 94 89 84 87 78 73 68 65 63 48 48 38 35 6 331 324 316 313 308 307 305 308 313 318 316 318 316 315 313 315 312 305
218 256 262 295 344 329 302 307 292 246 256 248 227 206 247 221 202 278 289 219 217 203 195 254 189 227 211 222 233 45 338 331 320 323 266 264 281 256 294 53 309 42 292 21 315 264 194 62 58 56 46 21 42 50 52 50 56 69 65 68 66 59 49 55 23 26 11 349 327 312 288 287 292 288 291 293 299 295 298 306 307 310 312 307 297 290 289
347 309 299 283 265 270 287 262 243 263 235 285 293 285 244 261 224 204 229 224 201 205 170 215 212 223 275 67 47 8 46 357 282 297 314 6 354 351 359 352 74 297 47 6 283 351 19 268 94 79 54 51 53 49 44 47 45 44 45 45 43 27 20 19 4 12 351 327 312 318 308 296 298 292 286 299 306 310 302 305 317 331 327 324 320 307 293
264 248 262 302 342 296 267 281 159 251 208 17 34 344 295 277 219 263 228 233 340 300 135 243 249 175 47 85 87 41 66 300 12 320 340 357 276 257 310 292 233 242 79 210 218 163 109 56 76 71 58 61 47 46 47 46 33 35 30 24 19 16 17 9 3 347 340 330 327 309 308 319 320 327 332 327 334 340 342 348 341 332 332 326 324 326 328
285 332 320 194 265 228 285 349 242 264 291 193 159 202 206 247 199 228 265 202 153 232 157 211 358 326 66 355 45 244 152 73 57 266 234 133 292 287 272 260 276 63 32 253 152 193 85 63 60 60 55 46 40 41 41 36 21 16 10 11 9 16 3 348 334 327 331 332 323 324 328 330 327 322 323 353 347 330 326 322 323 331 325 321 319 323 354
8 239 267 357 355 350 67 41 293 189 232 185 233 261 225 249 150 203 241 143 206 46 11 340 174 222 85 348 115 136 285 228 33 348 331 5 314 295 276 16 336 333 357 351 297 127 83 55 46 41 43 39 35 34 37 30 19 11 2 358 2 356 344 341 336 335 332 335 334 336 329 327 314 317 336 348 335 328 324 334 344 333 328 324 326 345 349
290 307 220 116 6 302 268 110 157 264 256 220 229 225 256 283 95 7 318 203 94 131 71 11 353 64 80 31 67 324 322 29 107 303 339 91 22 326 39 195 228 357 358 315 348 60 79 96 44 46 35 32 25 26 23 16 9 11 6 2 352 350 351 343 341 342 341 339 346 342 330 324 328 357 354 341 332 337 357 346 333 335 338 334 343 331 330
284 254 248 264 292 221 239 251 221 227 283 238 221 300 58 88 338 339 23 6 46 14 53 75 5 358 77 89 74 300 308 312 352 354 335 11 300 318 26 12 13 241 327 313 48 75 67 56 51 36 30 30 30 21 19 9 10 14 7 358 355 353 348 342 337 339 345 342 333 329 327 329 328 354 352 331 330 4 12 344 346 353 1 353 332 321 327
313 271 249 358 287 228 231 248 254 248 229 285 317 309 4 115 221 60 25 15 19 25 32 338 61 347 59 346 308 13 12 346 33 21 22 305 333 17 9 5 344 316 291 55 81 44 54 50 51 38 34 24 28 16 12 8 19 15 14 8 358 353 354 348 349 341 336 327 324 328 340 346 347 343 335 347 343 349 0 355 9 8 347 353 355 9 13
296 305 308 278 266 266 239 273 307 307 327 311 300 37 288 116 51 17 25 15 37 4 11 357 42 340 80 228 59 33 3 353 37 241 358 14 33 312 128 242 203 116 55 61 87 61 49 54 69 53 38 35 23 25 26 7 18 7 13 13 360 344 356 355 346 341 337 331 340 347 342 336 333 340 337 333 337 344 345 342 9 0 351 359 339 349 349
284 272 234 264 280 165 9 332 298 276 223 212 288 325 15 21 97 62 347 26 22 339 349 3 339 333 36 344 232 299 108 212 262 153 113 190 234 261 258 312 47 49 50 27 49 47 43 29 29 53 51 36 19 16 16 22 359 0 359 5 348 338 357 3 358 350 1 350 350 345 339 341 327 333 331 330 313 303 304 352 2 325 336 359 331 312 312
222 253 277 280 328 333 336 345 341 330 337 22 13 307 286 34 57 29 350 360 341 339 319 196 181 129 113 317 349 72 264 144 173 147 249 216 172 226 295 44 57 40 50 26 38 54 58 53 48 30 26 27 350 2 5 359 356 344 351 351 348 352 345 352 359 353 350 345 340 357 356 338 334 330 328 311 317 344 351 356 13 355 342 322 314 315 288
250 246 280 288 325 332 65 285 294 292 315 26 14 312 15 55 38 340 266 351 278 241 208 345 288 116 54 77 199 302 23 12 288 168 196 224 4 28 59 49 42 26 26 23 36 41 43 35 39 28 16 12 355 340 1 355 349 349 330 326 341 339 333 334 348 348 345 328 335 336 313 330 332 338 328 327 355 357 356 350 350 338 314 309 321 323 340